Weather History for Ireland West Airport Knock, Ireland

Change the Weather History Date:

Saturday, March 23, 2013

  Actual Average Record
Temperature  
Mean Temperature 36 °F -  
Max Temperature 37 °F - - ()
Min Temperature 34 °F - - ()
Degree Days  
Heating Degree Days 30    
Moisture  
Dew Point 35 °F    
Average Humidity 94    
Maximum Humidity 100    
Minimum Humidity 87    
Precipitation  
Precipitation 0.00 in - - ()
Sea Level Pressure  
Sea Level Pressure 29.73 in    
Wind  
Wind Speed 16 mph ()    
Max Wind Speed 21 mph    
Max Gust Speed 32 mph    
Visibility 6.1 miles    
Events      
T = Trace of Precipitation, MM = Missing Value Source: Averaged Metar Reports

Daily Weather History Graph

Daily Weather History Graph

Search for Another Location

Airport:

Trip Planner

Search our weather history database for the weather conditions in past years. The results will help you decide how hot, cold, wet, or windy it might be!

Date:

Astronomy

Mar. 23, 2013 Rise Set
Actual Time 6:30 AM GMT 6:54 PM GMT
Civil Twilight 5:54 AM GMT 7:29 PM GMT
Nautical Twilight 5:12 AM GMT 8:12 PM GMT
Astronomical Twilight 4:28 AM GMT 8:57 PM GMT
Moon 2:38 PM GMT (3/23) 4:30 AM GMT (3/23)
Length of Visible Light 13h 35m
Length of Day
12h 24m
Waxing Gibbous, 83% of the Moon is Illuminated
Mar 23
Waxing Gibbous
Mar 27
Full
Apr 3
Last Quarter
Apr 10
New
Apr 18
First Quarter

Hourly Weather History & Observations

Time (GMT) Temp. Windchill Dew Point Humidity Pressure Visibility Wind Dir Wind Speed Gust Speed Precip Events Conditions
12:00 AM 37 °F - 36 °F 97% 29.60 in - ESE 17.9 mph - -  
6:00 AM 35 °F - 34 °F 95% 29.69 in 14 mi East 15.7 mph - -   Overcast
6:00 AM 35.6 °F 25.9 °F 33.8 °F 93% 29.65 in 6.2 mi East 16.1 mph - N/A   Overcast
7:00 AM 35.6 °F 24.8 °F 33.8 °F 93% 29.65 in 5.6 mi ESE 19.6 mph - N/A   Overcast
8:00 AM 35.6 °F 24.8 °F 33.8 °F 93% 29.68 in 6.2 mi East 19.6 mph - N/A   Overcast
8:30 AM 35.6 °F 25.2 °F 33.8 °F 93% 29.68 in 6.2 mi ESE 18.4 mph 29.9 mph N/A   Overcast
9:00 AM 35.6 °F 24.5 °F 35.6 °F 100% 29.68 in 4.3 mi East 20.7 mph - N/A   Overcast
9:30 AM 35.6 °F 25.9 °F 35.6 °F 100% 29.68 in 3.7 mi ESE 16.1 mph - N/A   Light Drizzle
10:00 AM 35.6 °F 25.2 °F 35.6 °F 100% 29.71 in - ESE 18.4 mph 29.9 mph N/A   Light Drizzle
10:30 AM 35.6 °F 25.2 °F 35.6 °F 100% 29.71 in - ESE 18.4 mph - N/A   Light Drizzle
11:00 AM 35.6 °F 25.5 °F 35.6 °F 100% 29.71 in - ESE 17.3 mph - N/A   Overcast
11:30 AM 37.4 °F 26.9 °F 35.6 °F 93% 29.74 in 5.0 mi ESE 20.7 mph - N/A   Mostly Cloudy
12:00 PM 37 °F - 36 °F 93% 29.77 in 7 mi ESE 17.9 mph - -   Mist
12:00 PM 37.4 °F 27.8 °F 35.6 °F 93% 29.74 in 6.2 mi ESE 17.3 mph - N/A   Mostly Cloudy
12:30 PM 37.4 °F 27.5 °F 35.6 °F 93% 29.74 in 5.6 mi ESE 18.4 mph 29.9 mph N/A   Mostly Cloudy
1:00 PM 37.4 °F 27.5 °F 35.6 °F 93% 29.74 in 5.6 mi ESE 18.4 mph 29.9 mph N/A   Mostly Cloudy
1:30 PM 37.4 °F 28.2 °F 35.6 °F 93% 29.74 in 6.2 mi ESE 16.1 mph 29.9 mph N/A   Mostly Cloudy
2:00 PM 37.4 °F 27.2 °F 35.6 °F 93% 29.74 in 5.6 mi East 19.6 mph - N/A   Mostly Cloudy
2:30 PM 37.4 °F 27.8 °F 35.6 °F 93% 29.74 in 6.2 mi East 17.3 mph - N/A   Mostly Cloudy
3:00 PM 37.4 °F 28.2 °F 35.6 °F 93% 29.77 in 6.2 mi East 16.1 mph - N/A   Mostly Cloudy
3:30 PM 35.6 °F 24.8 °F 33.8 °F 93% 29.77 in 6.2 mi East 19.6 mph 31.1 mph N/A   Mostly Cloudy
4:00 PM 37.4 °F 27.5 °F 33.8 °F 87% 29.77 in 6.2 mi ESE 18.4 mph 32.2 mph N/A   Mostly Cloudy
4:30 PM 35.6 °F 24.5 °F 33.8 °F 93% 29.77 in 6.2 mi East 20.7 mph 32.2 mph N/A   Mostly Cloudy
5:00 PM 35.6 °F 25.9 °F 33.8 °F 93% 29.77 in 6.2 mi ESE 16.1 mph - N/A   Mostly Cloudy
5:30 PM 35.6 °F 24.8 °F 33.8 °F 93% 29.77 in 5.6 mi ESE 19.6 mph 31.1 mph N/A   Mostly Cloudy
6:00 PM 35 °F - 33 °F 91% 29.83 in 5 mi East 17.9 mph - -   Mist
6:00 PM 35.6 °F 25.2 °F 33.8 °F 93% 29.80 in 5.0 mi East 18.4 mph - N/A   Mostly Cloudy